Regional Weather Roundup
Issued by NWS

Home | Current Version | Previous Version | Graphics & Text | Print | Product List | Glossary On
Versions: 1 2 3 4 5 6 7 8 9 10 11 12 13 14 15 16 17 18 19 20 21 22 23 24 25 26 27 28 29 30 31 32 33 34 35 36 37 38 39 40 41 42 43 44 45 46 47 48 49 50
000
ASUS43 KLMK 240910
RWRKY
KENTUCKY REGIONAL WEATHER ROUNDUP
NATIONAL WEATHER SERVICE LOUISVILLE KY
500 AM EDT SAT SEP 24 2016

NOTE "FAIR" INDICATES FEW OR NO CLOUDS BELOW 12,000 FEET
WITH NO SIGNIFICANT WEATHER AND/OR OBSTRUCTIONS TO VISIBILITY.

KYZ001>023-026-027-061>063-070>075-241000-
WESTERN AND SOUTH CENTRAL KENTUCKY

CITY           SKY/WX    TMP DP  RH WIND       PRES   REMARKS
PADUCAH        CLEAR     68  66  93 CALM      30.06S FOG
HENDERSON      CLEAR     63  57  82 CALM      30.06S
OWENSBORO      NOT AVBL
HOPKINSVILLE   CLEAR     67  67  98 CALM      30.07S
BOWLING GREEN  PTCLDY    65  64  97 CALM      30.08S FOG
GLASGOW        CLEAR    N/A N/A N/A CALM      30.08F FOG
$$

KYZ024-025-028>034-038-045-046-053-241000-
NORTH CENTRAL KENTUCKY

CITY           SKY/WX    TMP DP  RH WIND       PRES   REMARKS
LOUISVILLE/SDF CLEAR     71  66  84 CALM      30.07S
LOUISVILLE/LOU CLEAR     68  64  87 CALM      30.08S
FORT KNOX      CLEAR     63  63  99 W2        30.07S FOG
$$

KYZ035>037-039>044-047>052-055>060-089>105-241000-
NORTHEAST KENTUCKY

CITY           SKY/WX    TMP DP  RH WIND       PRES   REMARKS
LEXINGTON      CLEAR     66  62  87 CALM      30.09S
COVINGTON      CLEAR     69  66  90 N6        30.09R
FRANKFORT      CLEAR     66  62  87 CALM      30.07F
$$

KYZ054-064>069-076>088-106>120-241000-
SOUTHEAST KENTUCKY

CITY           SKY/WX    TMP DP  RH WIND       PRES   REMARKS
JACKSON        CLEAR     68  64  87 CALM      30.11S
LONDON         PTCLDY    63  60  90 CALM      30.11S FOG
SOMERSET       CLEAR     61  61 100 CALM      30.11S
MIDDLESBORO    FOG       61  61 100 CALM      30.14R VSB 1
MONTICELLO     PTSUNNY   59  57  94 W7        30.12S FOG
$$





USA.gov is the U.S. government's official web portal to all federal, state and local government web resources and services.